Regional Weather Roundup
Issued by NWS

Home | Current Version | Previous Version | Graphics & Text | Print | Product List | Glossary On
Versions: 1 2 3 4 5 6 7 8 9 10 11 12 13 14 15 16 17 18 19 20 21 22 23 24 25 26 27 28 29 30 31 32 33 34 35 36 37 38 39 40 41 42 43 44 45 46 47 48 49 50
352
ASUS44 KMEG 140000
RWRTN
TENNESSEE HOURLY STATE WEATHER ROUNDUP
NATIONAL WEATHER SERVICE MEMPHIS TN
600 PM CST SAT FEB 13 2016

TNZ002-004-019-021-049-052-054-088>092-140100-
WEST TENNESSEE

CITY           SKY/WX    TMP DP  RH WIND       PRES   REMARKS
MEMPHIS INTL   CLOUDY    35   6  29 NE12      30.45F WCI  27
NWS MEMPHIS      N/A     32 N/A N/A MISG        N/A
JACKSON        CLOUDY    31   8  38 NE9       30.47F WCI  23
DYERSBURG      CLOUDY    28   7  40 NE9       30.51S WCI  20
UNION CITY     CLOUDY    27   7  43 NE7       30.49F WCI  19
PARIS          CLOUDY    25   5  42 NE10      30.49F WCI  15
LEXINGTON      CLOUDY    30   0  27 NE7       30.45F WCI  23
$$

TNZ008-025-027-028-033-062-065-066-140100-
NORTH MIDDLE TENNESSEE

CITY           SKY/WX    TMP DP  RH WIND       PRES   REMARKS
NASHVILLE      MOCLDY    27   1  32 NE9       30.49F WCI  18
CLARKSVILLE    CLOUDY    26   4  38 N8        30.51S WCI  18
COOKEVILLE     CLEAR     27   7  43 N3        30.45R
CROSSVILLE     CLEAR     23   2  40 N6        30.39R WCI  16
$$

TNZ061-075-076-078-094-096-097-140100-
SOUTH MIDDLE TENNESSEE

CITY           SKY/WX    TMP DP  RH WIND       PRES   REMARKS
TULLAHOMA      CLEAR     25   1  36 N8        30.43F WCI  16
WINCHESTER     CLEAR     27   7  43 N6        30.44R WCI  20
MCMINNVILLE    CLEAR     27   5  39 N7        30.44R WCI  19
COLUMBIA       PTCLDY    30   7  37 N3        30.44F
SHELBYVILLE    CLEAR     27   9  46 N7        30.47F WCI  19
$$

TNZ017-018-042-046-047-140100-
NORTHEAST TENNESSEE

CITY           SKY/WX    TMP DP  RH WIND       PRES   REMARKS
TRI CITIES     CLEAR     21   2  43 N5        30.39R WCI  15
$$

TNZ012-013-036-069-073-074-140100-
CENTRAL EAST TENNESSEE

CITY           SKY/WX    TMP DP  RH WIND       PRES   REMARKS
KNOXVILLE      CLEAR     27   5  39 N8        30.42S WCI  19
OAK RIDGE      CLEAR     28   3  34 VRB6      30.45R WCI  22
GATLINBURG     CLEAR     25   1  36 CALM      30.43S
$$

TNZ083-085-099-140100-
SOUTHEAST TENNESSEE

CITY           SKY/WX    TMP DP  RH WIND       PRES   REMARKS
CHATTANOOGA    PTCLDY    33   3  28 N10       30.43R WCI  25
$$

SKY/WX REPORTED AS FAIR MEANS FEW OR NO CLOUDS BELOW
12 THOUSAND FEET.





USA.gov is the U.S. government's official web portal to all federal, state and local government web resources and services.